Location: Eschertshofen
(49.3064°N, 11.5756°E)
Time: 00:05:08
(UTC+00:00)

Iridium 26 - Pass Details

Date: 25 September 2021
Orbit: 772 x 775 km, 86.4° (Epoch: 21 October)

Event Time Altitude Azimuth Distance (km) Brightness Sun altitude
Exits shadow 19:17:08 16° 48° (NE) 1,923 7.3 -21.7°
Drops below altitude 10° 19:18:50 10° 31° (NNE) 2,333 7.9 -22.0°
Sets 19:21:43 0° 16° (NNE) 3,265 8.9 -22.4°
